Regional Weather Roundup
Issued by NWS

Home | Current Version | Previous Version | Graphics & Text | Print | Product List | Glossary On
Versions: 1 2 3 4 5 6 7 8 9 10 11 12 13 14 15 16 17 18 19 20 21 22 23 24 25 26 27 28 29 30 31 32 33 34 35 36 37 38 39 40 41 42 43 44 45 46 47 48 49 50
000
ASUS43 KMKX 011221
RWRWI

WISCONSIN REGIONAL WEATHER ROUNDUP
NATIONAL WEATHER SERVICE MILWAUKEE/SULLIVAN WI
700 AM CDT WED JUL 01 2015

NOTE: "FAIR" INDICATES FEW OR NO CLOUDS BELOW 12,000 FEET WITH NO
SIGNIFICANT WEATHER AND/OR OBSTRUCTIONS TO VISIBILITY.

WIZ001-002-006>008-014>016-023>028-011300-
NORTHWEST WISCONSIN

CITY           SKY/WX    TMP DP  RH WIND       PRES   REMARKS
SUPERIOR ARPT  MOSUNNY   47  47 100 CALM      30.02S
6HR MIN TEMP:  42; 6HR MAX TEMP:  53;

ASHLAND        MOSUNNY   47  47 100 CALM      30.03R
6HR MIN TEMP:  39; 6HR MAX TEMP:  47;

HAYWARD        MOSUNNY   46  44  93 CALM      30.03R
6HR MIN TEMP:  42; 6HR MAX TEMP:  48;

SIREN          PTSUNNY   49  48  95 CALM      30.02S
6HR MIN TEMP:  45; 6HR MAX TEMP:  54;

CUMBERLAND     MOSUNNY   50  48  93 CALM      30.02S
RICE LAKE      MOSUNNY   50  47  90 CALM      30.04R
6HR MIN TEMP:  47; 6HR MAX TEMP:  53;

CHETEK         MOSUNNY   51  48  90 CALM      30.02S
6HR MIN TEMP:  46; 6HR MAX TEMP:  56;

LADYSMITH      MOSUNNY   48  46  93 CALM      30.04S
6HR MIN TEMP:  43; 6HR MAX TEMP:  49;

EAU CLAIRE     SUNNY     50  47  89 NE5       30.00S
6HR MIN TEMP:  45; 6HR MAX TEMP:  54;

MENOMONIE      MOSUNNY   52  48  84 NE6       30.01S
6HR MIN TEMP:  50; 6HR MAX TEMP:  57;

NEW RICHMOND   PTSUNNY   52  49  88 E3        30.01R
6HR MIN TEMP:  52; 6HR MAX TEMP:  56;

OSCEOLA        PTSUNNY   55  49  82 SE3       30.03S
6HR MIN TEMP:  53; 6HR MAX TEMP:  59;

$$

WIZ003>005-009-010-017-018-011300-
NORTH CENTRAL WISCONSIN

CITY           SKY/WX    TMP DP  RH WIND       PRES   REMARKS
MANITOWISH WTR MOSUNNY   44  44 100 CALM      30.03R
6HR MIN TEMP:  37; 6HR MAX TEMP:  44;

ARBOR VITAE    MOSUNNY   46  44  94 N3        30.02R
6HR MIN TEMP:  40; 6HR MAX TEMP:  46;

WOODRUFF       MOSUNNY   46  44  94 N3        30.02R
6HR MIN TEMP:  40; 6HR MAX TEMP:  46;

RHINELANDER    MOSUNNY   47  43  86 N3        30.02R
6HR MIN TEMP:  37; 6HR MAX TEMP:  47;

EAGLE RIVER    SUNNY     44  44 100 CALM      30.01S
6HR MIN TEMP:  35; 6HR MAX TEMP:  44;

LAND O LAKES   SUNNY     45  45 100 CALM      30.03R
6HR MIN TEMP:  36; 6HR MAX TEMP:  45;

PHILLIPS       PTSUNNY   43  43  99 CALM      30.03R
6HR MIN TEMP:  38; 6HR MAX TEMP:  43;

TOMAHAWK       MOSUNNY   41  41  98 CALM      30.03R
MEDFORD        SUNNY     46  44  95 NE3       30.02R
6HR MIN TEMP:  39; 6HR MAX TEMP:  46;

MERRILL        SUNNY     45  45  99 CALM      30.02R
6HR MIN TEMP:  36; 6HR MAX TEMP:  45;

$$

WIZ029-030-035-036-043>047-011300-
CENTRAL WISCONSIN

CITY           SKY/WX    TMP DP  RH WIND       PRES   REMARKS
WAUSAU         SUNNY     49  46  90 NW5       29.99R
6HR MIN TEMP:  46; 6HR MAX TEMP:  51;

MOSINEE        SUNNY     48  46  93 N7        30.01R
MARSHFIELD     SUNNY     50  45  83 N3        30.01R
6HR MIN TEMP:  45; 6HR MAX TEMP:  53;

STEVENS POINT  SUNNY     46  44  93 N6        30.00R
6HR MIN TEMP:  40; 6HR MAX TEMP:  48;

WAUPACA        SUNNY     52  46  81 CALM      29.98S
6HR MIN TEMP:  48; 6HR MAX TEMP:  54;

WAUTOMA        SUNNY     52  47  83 CALM      29.99R
6HR MIN TEMP:  45; 6HR MAX TEMP:  56;

WISC RAPIDS    SUNNY     52  47  83 N6        30.01R
6HR MIN TEMP:  45; 6HR MAX TEMP:  54;

CAMP DOUGLAS   MOSUNNY   43  43 100 W5        30.00R
$$

WIZ011>013-019>022-031-037>040-048>050-011300-
NORTHEAST WISCONSIN

CITY           SKY/WX    TMP DP  RH WIND       PRES   REMARKS
ANTIGO         MOSUNNY   45  44  95 N6        30.00R
SHAWANO        SUNNY     51  44  77 N6        29.98S
6HR MIN TEMP:  47; 6HR MAX TEMP:  51;

OCONTO         CLOUDY    48  46  90 N7        29.98R
6HR MIN TEMP:  47; 6HR MAX TEMP:  51;

STURGEON BAY   CLOUDY    52  46  82 N7        29.98S
6HR MIN TEMP:  52; 6HR MAX TEMP:  54;

GREEN BAY      CLOUDY    53  46  77 N8        29.97S
6HR MIN TEMP:  48; 6HR MAX TEMP:  51;

MANITOWOC      CLOUDY    54  49  83 MISG      29.95F
6HR MIN TEMP:  50; 6HR MAX TEMP:  56;

APPLETON       PTSUNNY   48  43  81 N7        29.97S
CLINTONVILLE   SUNNY     50  43  76 N5        29.98S
OSHKOSH        MOSUNNY   53  44  71 N10       29.97R
6HR MIN TEMP:  49; 6HR MAX TEMP:  55;

$$

WIZ032>034-041-042-053>061-011300-
SOUTHWEST WISCONSIN

CITY           SKY/WX    TMP DP  RH WIND       PRES   REMARKS
LA CROSSE      MOSUNNY   56  51  84 CALM      29.99R
6HR MIN TEMP:  53; 6HR MAX TEMP:  61;

SPARTA         MOSUNNY   45  44  96 CALM      30.02R
6HR MIN TEMP:  41; 6HR MAX TEMP:  48;

VIROQUA        MOSUNNY   53  51  94 E5        29.98R
6HR MIN TEMP:  51; 6HR MAX TEMP:  56;

BOSCOBEL       SUNNY     55  54  96 CALM      29.98R
6HR MIN TEMP:  51; 6HR MAX TEMP:  55;

PRAIRIE DU CHI SUNNY     55  53  94 CALM      29.97S
6HR MIN TEMP:  53; 6HR MAX TEMP:  59;

PLATTEVILLE    CLOUDY    58  56  95 NE6       29.97R
6HR MIN TEMP:  53; 6HR MAX TEMP:  59;

$$

WIZ056-057-062-063-064-067-068-011300-
SOUTH CENTRAL WISCONSIN

CITY           SKY/WX    TMP DP  RH WIND       PRES   REMARKS
REEDSBURG      SUNNY     52  48  87 CALM      29.99R
BARABOO/DELLS  SUNNY     52  46  78 NE3       29.99R
6HR MIN TEMP:  50; 6HR MAX TEMP:  58;

LONE ROCK      MOSUNNY   57  50  77 E3        29.99R
6HR MIN TEMP:  54; 6HR MAX TEMP:  57;

MINERAL POINT  CLOUDY    59  54  82 NE7       29.98R
MADISON        PTSUNNY   56  46  69 N8        29.98R
6HR MIN TEMP:  56; 6HR MAX TEMP:  61;

MIDDLETON      CLOUDY    57  47  67 NE6       29.99R
6HR MIN TEMP:  56; 6HR MAX TEMP:  61;

WATERTOWN      SUNNY     53  49  85 N5        29.96R
6HR MIN TEMP:  53; 6HR MAX TEMP:  56;

MONROE         CLOUDY    57  55  94 E5        29.97R
JANESVILLE     CLOUDY    59  57  94 CALM      29.97R
$$

WIZ051-052-058>065-066-070>072-011300-
SOUTHEAST WISCONSIN

CITY           SKY/WX    TMP DP  RH WIND       PRES   REMARKS
MILWAUKEE      MOSUNNY   55  47  74 NW8       29.96S
6HR MIN TEMP:  52; 6HR MAX TEMP:  55;

WAUKESHA       SUNNY     54  46  76 N7        29.98R
MILWAUKEE/TIMM MOSUNNY   54  43  66 N6        29.97R
RACINE         SUNNY     55  50  83 NW5       29.97R
6HR MIN TEMP:  52; 6HR MAX TEMP:  55;

BURLINGTON     PTSUNNY   53  51  93 CALM      29.96R
6HR MIN TEMP:  50; 6HR MAX TEMP:  53;

KENOSHA        PTSUNNY   55  51  86 CALM      29.97R
6HR MIN TEMP:  50; 6HR MAX TEMP:  55;

FOND DU LAC    MOSUNNY   53  45  74 NW10      29.96F
6HR MIN TEMP:  49; 6HR MAX TEMP:  59;

SHEBOYGAN      CLOUDY    52  47  83 N6        29.95F
6HR MIN TEMP:  48; 6HR MAX TEMP:  55;

WEST BEND      SUNNY     52  45  76 N5        29.96S
JUNEAU         SUNNY     53  46  77 N7        29.98R
6HR MIN TEMP:  50; 6HR MAX TEMP:  58;

$$

LSZ147-162-011300-
LAKE SUPERIOR

STATION/POSITION TIME  TEMP    WIND        PRES    WAVE
                       AIR SEA DIR/SP/G            HT/PER
                 (UTC) (F)     (DEG/KT/KT) (MB)    (FT/S)
W MID LAKE BUOY  1150   43 38  210/  6/  8 1017.1R   1/ 5
DEVILS ISLAND    1200   53     140/  4/  5 1017.2R
SAXON HARBOR     1100   43     180/  4/  6 1016.3
$$

LMZ867-665-643>646-011300-
LAKE MICHIGAN

STATION/POSITION TIME  TEMP    WIND        PRES    WAVE
                       AIR SEA DIR/SP/G            HT/PER
                 (UTC) (F)     (DEG/KT/KT) (MB)    (FT/S)
CHAMBERS ISLAND  1100   52     330/ 12/ 15 1014.6R
N MID LAKE BUOY  1150   45 40  320/ 10/ 12 1013.9R   2/ 4
NORTHPORT PIER   1100   52     340/ 15/ 18 1014.2R



USA.gov is the U.S. government's official web portal to all federal, state and local government web resources and services.